Voltar ao catálogo

STARLINK-35410

AtivoComunicaçõesVLEO
NORAD 66024·PAYLOAD·🇺🇸 United States

Lançado Oct 16, 2025 de Cape Canaveral Space Force Station

Loading…

Próximas Passagens (próximas 24 horas)

TLE

AtualizadoSource: CelesTrak SupGP

Época: Sep 14, 2026, 20:41 UTC

1 66024C 25232V   26257.86229167 -.00002276  00000+0 -67255-4 0  2579
2 66024  53.1584 301.7566 0001218  93.2699  49.0376 15.34382232    17

Acompanhe STARLINK-35410 em tempo real com AllMySat

Download on the App Store